• In Hungary
  • List of Countries
  • For 7 days
  • Water Temperature
  • Satellite Maps
  • Weather Map
  • News
  • Weather Widgets
  • user-avatar
    Login

    Hourly Weather SanFrancisco

    Today, 22 October, Sunday

    Time Temperature Precipitation Wind Pressure Humidity
    00:00 +13°C° 1.1 mm 1 mps 582 mmHg 84%
    01:00 +13°C° 1.1 mm 1 mps 582 mmHg 84%
    02:00 +13°C° 0.8 mm 1 mps 581 mmHg 84%
    03:00 +13°C° 0.8 mm 1 mps 581 mmHg 84%
    04:00 +13°C° 0.8 mm 1 mps 581 mmHg 84%
    05:00 +13°C° 1 mm 1 mps 582 mmHg 83%
    06:00 +13°C° 1 mm 1 mps 582 mmHg 81%
    07:00 +14°C° 1 mm 1 mps 583 mmHg 80%
    08:00 +15°C° 1 mm 2 mps 583 mmHg 76%
    09:00 +16°C° 1 mm 2 mps 584 mmHg 73%
    10:00 +17°C° 1 mm 2 mps 585 mmHg 70%
    11:00 +17°C° 2 mm 2 mps 584 mmHg 72%
    12:00 +17°C° 2 mm 2 mps 584 mmHg 74%
    13:00 +16°C° 2 mm 2 mps 583 mmHg 76%
    14:00 +17°C° 1.4 mm 2 mps 583 mmHg 74%
    15:00 +17°C° 1.4 mm 2 mps 583 mmHg 72%
    16:00 +18°C° 1.4 mm 1 mps 582 mmHg 71%
    17:00 +16°C° 1 mm 1 mps 582 mmHg 73%
    18:00 +15°C° 1 mm 2 mps 582 mmHg 76%
    19:00 +14°C° 1 mm 2 mps 582 mmHg 78%
    20:00 +14°C° 0.9 mm 2 mps 582 mmHg 78%
    21:00 +14°C° 0.9 mm 2 mps 582 mmHg 78%
    22:00 +14°C° 0.9 mm 2 mps 583 mmHg 78%
    23:00 +14°C° 0.8 mm 1 mps 582 mmHg 79%

    Tomorrow, 23 October, Monday

    Time Temperature Precipitation Wind Pressure Humidity
    00:00 +13°C° 0.8 mm 1 mps 582 mmHg 80%
    01:00 +13°C° 0.8 mm 1 mps 582 mmHg 81%
    02:00 +13°C° 0.2 mm 1 mps 581 mmHg 81%
    03:00 +12°C° 0.2 mm 1 mps 581 mmHg 81%
    04:00 +12°C° 0.2 mm 1 mps 581 mmHg 81%
    05:00 +13°C° 0 mm 1 mps 581 mmHg 79%
    06:00 +13°C° 0 mm 1 mps 582 mmHg 77%
    07:00 +14°C° 0 mm 1 mps 582 mmHg 75%
    08:00 +16°C° 0 mm 1 mps 583 mmHg 70%
    09:00 +17°C° 0 mm 2 mps 584 mmHg 64%
    10:00 +19°C° 0 mm 2 mps 585 mmHg 59%
    11:00 +19°C° 0.1 mm 2 mps 585 mmHg 59%
    12:00 +19°C° 0.1 mm 2 mps 584 mmHg 60%
    13:00 +19°C° 0.1 mm 2 mps 583 mmHg 60%
    14:00 +19°C° 0.2 mm 2 mps 583 mmHg 62%
    15:00 +19°C° 0.2 mm 2 mps 582 mmHg 64%
    16:00 +19°C° 0.2 mm 1 mps 582 mmHg 66%
    17:00 +18°C° 0.2 mm 1 mps 582 mmHg 72%
    18:00 +15°C° 0.2 mm 1 mps 581 mmHg 78%
    19:00 +14°C° 0.2 mm 1 mps 581 mmHg 85%
    20:00 +14°C° 0.1 mm 1 mps 581 mmHg 84%
    21:00 +14°C° 0.1 mm 1 mps 582 mmHg 84%
    22:00 +14°C° 0.1 mm 1 mps 582 mmHg 83%
    23:00 +13°C° 0.1 mm 1 mps 582 mmHg 83%

    Day after tomorrow, 24 October, Tuesday

    Time Temperature Precipitation Wind Pressure Humidity
    00:00 +13°C° 0.1 mm 1 mps 581 mmHg 84%
    01:00 +13°C° 0.1 mm 1 mps 581 mmHg 84%
    02:00 +13°C° 0.1 mm 1 mps 581 mmHg 84%
    03:00 +12°C° 0.1 mm 1 mps 580 mmHg 84%
    04:00 +12°C° 0.1 mm 1 mps 580 mmHg 84%
    05:00 +13°C° 0.1 mm 1 mps 581 mmHg 81%
    06:00 +13°C° 0.1 mm 1 mps 581 mmHg 78%
    07:00 +14°C° 0.1 mm 1 mps 582 mmHg 75%
    08:00 +15°C° 0 mm 1 mps 583 mmHg 70%
    09:00 +17°C° 0 mm 2 mps 584 mmHg 65%
    10:00 +18°C° 0 mm 2 mps 585 mmHg 61%
    11:00 +19°C° 0.1 mm 2 mps 584 mmHg 60%
    12:00 +19°C° 0.1 mm 2 mps 584 mmHg 59%
    13:00 +20°C° 0.1 mm 2 mps 583 mmHg 58%
    14:00 +19°C° 0.3 mm 2 mps 583 mmHg 60%
    15:00 +19°C° 0.3 mm 2 mps 582 mmHg 62%
    16:00 +19°C° 0.3 mm 2 mps 582 mmHg 64%
    17:00 +18°C° 1 mm 1 mps 581 mmHg 71%
    18:00 +16°C° 1 mm 1 mps 581 mmHg 77%
    19:00 +14°C° 1 mm 1 mps 581 mmHg 84%
    20:00 +14°C° 1.3 mm 1 mps 581 mmHg 84%
    21:00 +14°C° 1.3 mm 1 mps 582 mmHg 84%
    22:00 +14°C° 1.3 mm 1 mps 582 mmHg 84%
    23:00 +14°C° 1.5 mm 1 mps 582 mmHg 84%

    25 October, Wednesday

    Time Temperature Precipitation Wind Pressure Humidity
    00:00 +13°C° 1.5 mm 1 mps 582 mmHg 84%
    01:00 +13°C° 1.5 mm 1 mps 581 mmHg 84%
    02:00 +13°C° 1.2 mm 1 mps 581 mmHg 85%
    03:00 +13°C° 1.2 mm 1 mps 581 mmHg 85%
    04:00 +13°C° 1.2 mm 1 mps 581 mmHg 86%
    05:00 +13°C° 0.9 mm 1 mps 581 mmHg 84%
    06:00 +14°C° 0.9 mm 1 mps 582 mmHg 82%
    07:00 +14°C° 0.9 mm 1 mps 583 mmHg 79%
    08:00 +15°C° 0.6 mm 1 mps 583 mmHg 76%
    09:00 +16°C° 0.6 mm 1 mps 584 mmHg 72%
    10:00 +17°C° 0.6 mm 2 mps 585 mmHg 68%
    11:00 +18°C° 0.7 mm 2 mps 584 mmHg 68%
    12:00 +18°C° 0.7 mm 2 mps 583 mmHg 69%
    13:00 +18°C° 0.7 mm 2 mps 583 mmHg 69%
    14:00 +18°C° 1.7 mm 1 mps 582 mmHg 73%
    15:00 +18°C° 1.7 mm 1 mps 582 mmHg 76%
    16:00 +16°C° 1.7 mm 1 mps 581 mmHg 79%
    17:00 +16°C° 2.3 mm 1 mps 582 mmHg 81%
    18:00 +15°C° 2.3 mm 1 mps 582 mmHg 83%
    19:00 +14°C° 2.3 mm 1 mps 582 mmHg 85%
    20:00 +14°C° 2.6 mm 1 mps 582 mmHg 84%
    21:00 +14°C° 2.6 mm 1 mps 583 mmHg 84%
    22:00 +14°C° 2.6 mm 1 mps 583 mmHg 83%
    23:00 +13°C° 1.8 mm 1 mps 582 mmHg 83%

    26 October, Thursday

    Time Temperature Precipitation Wind Pressure Humidity
    00:00 +13°C° 1.8 mm 1 mps 582 mmHg 83%
    01:00 +13°C° 1.8 mm 1 mps 581 mmHg 83%
    02:00 +13°C° 1.1 mm 1 mps 581 mmHg 82%
    03:00 +12°C° 1.1 mm 1 mps 581 mmHg 82%
    04:00 +12°C° 1.1 mm 1 mps 581 mmHg 81%
    05:00 +13°C° 0.7 mm 1 mps 582 mmHg 79%
    06:00 +13°C° 0.7 mm 1 mps 582 mmHg 77%
    07:00 +13°C° 0.7 mm 0 mps 583 mmHg 75%
    08:00 +15°C° 0.5 mm 1 mps 584 mmHg 72%
    09:00 +16°C° 0.5 mm 1 mps 584 mmHg 69%
    10:00 +18°C° 0.5 mm 1 mps 585 mmHg 65%
    11:00 +18°C° 1.3 mm 1 mps 584 mmHg 68%
    12:00 +18°C° 1.3 mm 1 mps 583 mmHg 70%
    13:00 +18°C° 1.3 mm 1 mps 583 mmHg 72%
    14:00 +16°C° 2.1 mm 1 mps 582 mmHg 75%
    15:00 +16°C° 2.1 mm 1 mps 582 mmHg 77%
    16:00 +16°C° 2.1 mm 1 mps 582 mmHg 79%
    17:00 +15°C° 1.9 mm 1 mps 582 mmHg 82%
    18:00 +13°C° 1.9 mm 0 mps 582 mmHg 84%
    19:00 +13°C° 1.9 mm 0 mps 582 mmHg 87%
    20:00 +13°C° 1.5 mm 0 mps 582 mmHg 87%
    21:00 +13°C° 1.5 mm 1 mps 582 mmHg 87%
    22:00 +13°C° 1.5 mm 1 mps 582 mmHg 87%
    23:00 +13°C° 1.1 mm 1 mps 582 mmHg 87%

    27 October, Friday

    Time Temperature Precipitation Wind Pressure Humidity
    00:00 +13°C° 1.1 mm 1 mps 581 mmHg 88%
    01:00 +12°C° 1.1 mm 1 mps 581 mmHg 88%
    02:00 +12°C° 1 mm 1 mps 581 mmHg 87%
    03:00 +12°C° 1 mm 1 mps 581 mmHg 87%
    04:00 +12°C° 1 mm 1 mps 581 mmHg 87%
    05:00 +12°C° 0.8 mm 1 mps 581 mmHg 86%
    06:00 +13°C° 0.8 mm 1 mps 582 mmHg 84%
    07:00 +13°C° 0.8 mm 1 mps 583 mmHg 83%
    08:00 +15°C° 0.6 mm 1 mps 583 mmHg 77%
    09:00 +16°C° 0.6 mm 1 mps 584 mmHg 72%
    10:00 +17°C° 0.6 mm 2 mps 585 mmHg 66%
    11:00 +18°C° 0.7 mm 2 mps 584 mmHg 66%
    12:00 +18°C° 0.7 mm 2 mps 583 mmHg 66%
    13:00 +18°C° 0.7 mm 2 mps 583 mmHg 66%
    14:00 +18°C° 0.8 mm 2 mps 582 mmHg 67%
    15:00 +19°C° 0.8 mm 1 mps 582 mmHg 69%
    16:00 +18°C° 0.8 mm 1 mps 582 mmHg 70%
    17:00 +16°C° 0.4 mm 1 mps 582 mmHg 75%
    18:00 +15°C° 0.4 mm 1 mps 582 mmHg 80%
    19:00 +14°C° 0.4 mm 1 mps 581 mmHg 84%
    20:00 +14°C° 0.6 mm 1 mps 582 mmHg 84%
    21:00 +13°C° 0.6 mm 1 mps 582 mmHg 84%
    22:00 +13°C° 0.6 mm 1 mps 582 mmHg 84%
    23:00 +13°C° 1 mm 1 mps 582 mmHg 85%
    Show more